BAW119 EGLL-VOBL

Flight info

Callsign BAW119
Flight time N/A
Altitude 37000
Route DET L6 DVR L9 KONAN UL607 KOK DCT SISGA DCT RITAX DCT BANUX DCT VEKIR DCT LATLO DCT OBEDI DCT CEPRA DCT MOSAV DCT OSVIX DCT ESIRI DCT ETIDA DCT UDROS UN743 GAKSU UT310 SIN UN644 ZERGE/N0468F390 UN644 ROLIN N644 ODILI DCT BARAD M747 SUBUT T923 ERLEV L850 DUKAN B449 RANAH L750 ZB G202 RK P628 VIKIT/N0480F410 Z8 AAE/N0475F400 R458 BVR/N0478F410 R458 BBB Q13 BEKUT Q9 RIKBU RIKBU7F
Aircraft B772/H-SDE2E3FGHIJ5LORVWXY/LB1D1

Departure

Time N/A
Airport London Heathrow Airport (EGLL)

Arrival

Time 2026-04-28 23:08
Airport Kempegowda International Airport Bengaluru (VOBL)
Time Latitude Longitude Altitude Speed Heading
2026-04-28 22:24 16.54148 74.57340 38841 ft 502 kts 129°
2026-04-28 22:25 16.51979 74.60185 38841 ft 502 kts 129°
2026-04-28 22:25 16.47630 74.65888 38841 ft 503 kts 129°
2026-04-28 22:26 16.43269 74.71606 38842 ft 503 kts 129°
2026-04-28 22:26 16.38910 74.77322 38841 ft 503 kts 129°
2026-04-28 22:27 16.34576 74.83000 38840 ft 503 kts 129°
2026-04-28 22:27 16.30214 74.88710 38842 ft 503 kts 129°
2026-04-28 22:28 16.25857 74.94410 38838 ft 502 kts 129°
2026-04-28 22:28 16.21528 75.00068 38843 ft 502 kts 129°
2026-04-28 22:29 16.17173 75.05755 38839 ft 502 kts 129°
2026-04-28 22:29 16.12823 75.11432 38838 ft 501 kts 129°
2026-04-28 22:30 16.08469 75.17109 38839 ft 501 kts 130°
2026-04-28 22:30 16.04123 75.22772 38837 ft 501 kts 130°
2026-04-28 22:31 15.99805 75.28393 38840 ft 500 kts 130°
2026-04-28 22:31 15.95447 75.34063 38840 ft 501 kts 130°
2026-04-28 22:32 15.91092 75.39723 38835 ft 501 kts 130°
2026-04-28 22:32 15.86768 75.45340 38841 ft 501 kts 130°
2026-04-28 22:33 15.82404 75.51003 38846 ft 501 kts 130°
2026-04-28 22:33 15.78040 75.56663 38841 ft 502 kts 131°
2026-04-28 22:34 15.73675 75.62320 38843 ft 502 kts 131°
2026-04-28 22:34 15.69314 75.67968 38849 ft 502 kts 131°
2026-04-28 22:35 15.64958 75.73604 38841 ft 502 kts 131°
2026-04-28 22:35 15.60581 75.79264 38844 ft 502 kts 131°
2026-04-28 22:36 15.56230 75.84884 38846 ft 502 kts 131°
2026-04-28 22:36 15.51846 75.90544 38844 ft 502 kts 131°
2026-04-28 22:37 15.47460 75.96203 38848 ft 503 kts 131°
2026-04-28 22:37 15.43077 76.01853 38844 ft 503 kts 131°
2026-04-28 22:38 15.38689 76.07505 38850 ft 504 kts 131°
2026-04-28 22:38 15.34312 76.13139 38846 ft 504 kts 131°
2026-04-28 22:39 15.29907 76.18805 38849 ft 505 kts 131°
2026-04-28 22:39 15.25491 76.24481 38850 ft 505 kts 131°
2026-04-28 22:40 15.21080 76.30149 38843 ft 503 kts 131°
2026-04-28 22:40 15.16670 76.35699 38842 ft 494 kts 137°
2026-04-28 22:40 15.14075 76.37900 38672 ft 483 kts 150°
2026-04-28 22:41 15.11248 76.39765 38150 ft 480 kts 153°
2026-04-28 22:41 15.08390 76.41546 37572 ft 479 kts 153°
2026-04-28 22:41 15.05531 76.43310 37015 ft 478 kts 153°
2026-04-28 22:41 15.02686 76.45090 36547 ft 476 kts 153°
2026-04-28 22:42 14.99877 76.46880 36130 ft 472 kts 152°
2026-04-28 22:42 14.97096 76.48678 35716 ft 469 kts 152°
2026-04-28 22:42 14.94340 76.50477 35310 ft 466 kts 152°
2026-04-28 22:42 14.91644 76.52245 34902 ft 463 kts 152°
2026-04-28 22:43 14.88926 76.54028 34490 ft 461 kts 152°
2026-04-28 22:43 14.86221 76.55801 34089 ft 458 kts 152°
2026-04-28 22:43 14.83532 76.57564 33671 ft 456 kts 152°
2026-04-28 22:43 14.80864 76.59310 33238 ft 453 kts 152°
2026-04-28 22:44 14.78203 76.61051 32825 ft 449 kts 152°
2026-04-28 22:44 14.75571 76.62771 32428 ft 446 kts 152°
2026-04-28 22:44 14.72989 76.64458 32031 ft 443 kts 152°
2026-04-28 22:44 14.70391 76.66155 31623 ft 440 kts 152°
2026-04-28 22:45 14.67804 76.67844 31224 ft 438 kts 151°
2026-04-28 22:45 14.65239 76.69517 30837 ft 436 kts 151°
2026-04-28 22:45 14.62689 76.71173 30524 ft 424 kts 152°
2026-04-28 22:45 14.60222 76.72785 29837 ft 417 kts 151°
2026-04-28 22:46 14.57771 76.74386 28916 ft 419 kts 151°
2026-04-28 22:46 14.55271 76.76011 28368 ft 430 kts 150°
2026-04-28 22:46 14.52735 76.77649 27901 ft 438 kts 150°
2026-04-28 22:46 14.50154 76.79326 27426 ft 437 kts 150°
2026-04-28 22:47 14.47593 76.81001 26991 ft 432 kts 150°
2026-04-28 22:47 14.45067 76.82656 26550 ft 428 kts 150°
2026-04-28 22:47 14.42563 76.84294 26115 ft 424 kts 150°
2026-04-28 22:47 14.40080 76.85915 25685 ft 420 kts 150°
2026-04-28 22:48 14.37622 76.87517 25261 ft 417 kts 150°
2026-04-28 22:48 14.35169 76.89114 24822 ft 413 kts 150°
2026-04-28 22:48 14.32770 76.90674 24389 ft 410 kts 150°
2026-04-28 22:48 14.30367 76.92237 23962 ft 407 kts 150°
2026-04-28 22:49 14.27979 76.93790 23533 ft 404 kts 149°
2026-04-28 22:49 14.25603 76.95335 23037 ft 401 kts 149°
2026-04-28 22:49 14.23253 76.96862 22571 ft 398 kts 149°
2026-04-28 22:49 14.20914 76.98382 22135 ft 394 kts 149°
2026-04-28 22:50 14.18609 76.99883 21703 ft 390 kts 149°
2026-04-28 22:50 14.16322 77.01373 21269 ft 387 kts 149°
2026-04-28 22:50 14.14084 77.02831 20846 ft 384 kts 149°
2026-04-28 22:50 14.11826 77.04302 20422 ft 381 kts 148°
2026-04-28 22:51 14.09592 77.05757 19988 ft 379 kts 148°
2026-04-28 22:51 14.07369 77.07205 19558 ft 377 kts 148°
2026-04-28 22:51 14.05150 77.08649 19122 ft 376 kts 148°
2026-04-28 22:51 14.02941 77.10087 18693 ft 375 kts 148°
2026-04-28 22:52 14.00737 77.11520 18250 ft 374 kts 148°
2026-04-28 22:52 13.98541 77.12947 17774 ft 373 kts 148°
2026-04-28 22:52 13.96354 77.14367 17320 ft 370 kts 147°
2026-04-28 22:52 13.94183 77.15777 16882 ft 367 kts 147°
2026-04-28 22:53 13.92031 77.17175 16462 ft 365 kts 147°
2026-04-28 22:53 13.89918 77.18549 16030 ft 362 kts 146°
2026-04-28 22:53 13.87798 77.19926 15608 ft 359 kts 146°
2026-04-28 22:53 13.85684 77.21300 15181 ft 357 kts 146°
2026-04-28 22:54 13.83591 77.22660 14769 ft 354 kts 145°
2026-04-28 22:54 13.81512 77.24009 14338 ft 353 kts 145°
2026-04-28 22:54 13.79441 77.25353 13933 ft 350 kts 144°
2026-04-28 22:54 13.77403 77.26674 13653 ft 343 kts 144°
2026-04-28 22:55 13.75395 77.27975 13371 ft 336 kts 144°
2026-04-28 22:55 13.73439 77.29244 13113 ft 329 kts 144°
2026-04-28 22:55 13.71548 77.30469 12856 ft 321 kts 144°
2026-04-28 22:55 13.69679 77.31681 12612 ft 314 kts 144°
2026-04-28 22:56 13.67848 77.32869 12384 ft 307 kts 144°
2026-04-28 22:56 13.66055 77.34032 12163 ft 303 kts 144°
2026-04-28 22:56 13.64282 77.35184 11930 ft 300 kts 144°
2026-04-28 22:56 13.62519 77.36327 11731 ft 299 kts 144°
2026-04-28 22:57 13.60764 77.37464 11499 ft 298 kts 144°
2026-04-28 22:57 13.59014 77.38597 11273 ft 297 kts 144°
2026-04-28 22:57 13.57191 77.39589 11053 ft 298 kts 153°
2026-04-28 22:57 13.55277 77.40346 10845 ft 298 kts 156°
2026-04-28 22:58 13.53327 77.41062 10608 ft 298 kts 156°
2026-04-28 22:58 13.51377 77.41787 10396 ft 297 kts 156°
2026-04-28 22:58 13.49439 77.42525 10171 ft 295 kts 156°
2026-04-28 22:58 13.47534 77.43265 9944 ft 290 kts 155°
2026-04-28 22:59 13.45666 77.43998 9715 ft 284 kts 155°
2026-04-28 22:59 13.43838 77.44718 9493 ft 278 kts 155°
2026-04-28 22:59 13.42047 77.45409 9262 ft 269 kts 159°
2026-04-28 22:59 13.40219 77.45695 9079 ft 263 kts 174°
2026-04-28 23:00 13.38426 77.45720 8920 ft 254 kts 176°
2026-04-28 23:00 13.36696 77.45724 8715 ft 248 kts 177°
2026-04-28 23:00 13.34997 77.45728 8518 ft 241 kts 177°
2026-04-28 23:00 13.33344 77.45734 8315 ft 234 kts 177°
2026-04-28 23:01 13.31725 77.45744 8072 ft 230 kts 177°
2026-04-28 23:01 13.30158 77.45760 7943 ft 220 kts 177°
2026-04-28 23:01 13.29156 77.45772 7829 ft 215 kts 177°
2026-04-28 23:01 13.27159 77.45807 7640 ft 214 kts 177°
2026-04-28 23:02 13.25682 77.45878 7446 ft 208 kts 159°
2026-04-28 23:02 13.24734 77.46028 7223 ft 209 kts 160°
2026-04-28 23:02 13.23479 77.46646 7350 ft 204 kts 144°
2026-04-28 23:02 13.22112 77.48053 7257 ft 215 kts 122°
2026-04-28 23:03 13.21591 77.48936 7097 ft 211 kts 120°
2026-04-28 23:03 13.21060 77.50299 6736 ft 201 kts 98°
2026-04-28 23:03 13.20919 77.51679 6368 ft 197 kts 95°
2026-04-28 23:03 13.20856 77.53090 5856 ft 197 kts 92°
2026-04-28 23:04 13.20835 77.54473 5653 ft 190 kts 91°
2026-04-28 23:04 13.20814 77.57058 5156 ft 175 kts 92°
2026-04-28 23:04 13.20803 77.58317 4959 ft 177 kts 92°
2026-04-28 23:05 13.20793 77.59576 4742 ft 174 kts 93°
2026-04-28 23:05 13.20784 77.60756 4467 ft 161 kts 93°
2026-04-28 23:05 13.20783 77.61864 4179 ft 151 kts 92°
2026-04-28 23:05 13.20796 77.62946 4196 ft 154 kts 93°
2026-04-28 23:06 13.20757 77.64050 4046 ft 154 kts 91°
2026-04-28 23:06 13.20736 77.65107 3713 ft 148 kts 94°
2026-04-28 23:06 13.20729 77.66167 3553 ft 146 kts 90°
2026-04-28 23:06 13.20724 77.67185 3347 ft 140 kts 90°
2026-04-28 23:07 13.20722 77.68223 3180 ft 151 kts 91°
2026-04-28 23:07 13.20717 77.69242 3025 ft 130 kts 92°
2026-04-28 23:07 13.20708 77.70053 3016 ft 95 kts 91°
2026-04-28 23:07 13.20703 77.70575 3016 ft 53 kts 90°
2026-04-28 23:08 13.20665 77.70943 3015 ft 49 kts 115°
2026-04-28 23:08 13.20564 77.71125 3015 ft 23 kts 121°
2026-04-28 23:08 13.20526 77.71239 3015 ft 8 kts 92°
2026-04-28 23:08 13.20524 77.71297 3015 ft 10 kts 91°
2026-04-28 23:09 13.20523 77.71398 3015 ft 15 kts 90°
2026-04-28 23:09 13.20522 77.71502 3016 ft 15 kts 90°
2026-04-28 23:09 13.20521 77.71607 3016 ft 15 kts 90°
2026-04-28 23:09 13.20521 77.71712 3016 ft 15 kts 91°
2026-04-28 23:10 13.20507 77.71793 3016 ft 8 kts 142°
2026-04-28 23:10 13.20431 77.71789 3016 ft 17 kts 182°
2026-04-28 23:10 13.20321 77.71788 3016 ft 15 kts 180°
2026-04-28 23:10 13.20225 77.71785 3016 ft 12 kts 188°
2026-04-28 23:11 13.20182 77.71720 3018 ft 12 kts 270°
2026-04-28 23:11 13.20183 77.71637 3016 ft 10 kts 270°
2026-04-28 23:11 13.20169 77.71597 3016 ft 6 kts 208°
2026-04-28 23:11 13.20127 77.71592 3016 ft 6 kts 180°
2026-04-28 23:12 13.20108 77.71592 3016 ft 0 kts 180°
2026-04-28 23:12 13.20099 77.71592 3018 ft 2 kts 180°
2026-04-28 23:12 13.20090 77.71592 3016 ft 1 kts 180°
2026-04-28 23:12 13.20088 77.71592 3016 ft 0 kts 180°